Lid_Strength_Index
1 0 1 1 0 0 1 1 1 1 1 0 1 1 1 1 1 1 1 1 1 1 1 1 1 1 1 1 1 1 2 2 5 4 1 1 1 1 3 2 2 1 1
0 1 1 0 0 1 1 0 0 1 1 1 1 1 1 1 1 1 1 1 1 1 1 1 1 1 1 1 1 2 2 2 3 4 2 2 2 1 1 2 2 1 2
0 1 1 0 0 1 1 0 0 0 1 2 2 2 1 1 1 1 1 1 1 1 1 1 1 1 2 2 1 2 1 1 2 3 3 2 1 2 2 2 2 1 0
1 1 1 1 0 -0 -0 0 0 0 0 1 1 1 1 1 1 1 1 1 1 1 1 1 1 1 1 2 2 2 1 2 2 2 3 2 2 2 2 3 3 1 2
1 1 1 1 0 -0 -0 0 -0 0 0 0 0 1 1 1 1 1 1 1 1 1 1 1 1 1 1 1 1 1 2 2 2 3 3 3 3 3 4 3 4 2 1
1 1 1 1 1 1 -0 -0 0 0 0 0 1 1 1 1 4 6 5 1 1 1 2 1 1 1 1 4 4 3 1 2 3 3 3 3 3 3 2 3 3 3 4
1 1 1 1 1 1 0 0 0 0 1 1 1 1 1 1 5 6 7 2 1 1 1 1 1 1 2 1 4 5 5 5 3 1 3 3 3 2 2 2 3 3 3
1 1 1 1 1 1 1 1 1 0 0 1 1 1 1 1 5 6 7 1 1 1 1 1 1 1 1 1 1 1 2 2 2 2 1 1 1 1 1 1 2 2 2
2 1 1 1 1 1 1 1 1 1 1 1 1 1 1 1 6 7 7 1 1 1 1 1 1 1 4 8 1 2 2 2 4 5 5 4 5 4 2 2 3 4 5
1 1 1 1 1 1 1 1 0 1 1 1 1 1 2 1 8 9 5 1 2 2 1 1 5 3 6 9 3 2 3 2 2 2 4 6 6 5 5 2 2 4 4
1 1 1 1 1 1 1 1 1 1 1 1 1 1 1 1 3 9 8 3 3 3 3 2 1 8 9 9 9 1 2 2 3 2 3 3 3 4 3 3 3 3 4
1 1 1 1 1 1 1 1 1 1 2 2 2 2 1 1 4 8 9 8 7 5 4 3 2 9 10 10 9 8 9 7 2 2 3 3 4 3 3 4 4 3 3
1 2 1 1 1 1 1 2 2 2 2 2 2 2 2 1 1 6 7 8 8 5 2 4 9 11 10 9 10 10 10 5 3 3 3 3 3 3 3 4 3 3 3
2 2 1 2 2 1 1 1 2 2 2 3 3 3 2 2 1 2 3 4 6 5 5 4 5 8 9 5 6 8 6 4 3 3 2 2 2 3 4 3 4 4 4
2 2 2 1 2 2 1 1 2 1 1 2 2 2 2 2 5 7 6 4 5 7 9 5 4 3 3 4 4 3 4 4 4 3 2 2 3 3 3 3 4 5 6
2 2 2 2 2 2 2 2 5 5 5 6 7 6 2 7 8 8 8 8 9 10 5 5 4 4 3 3 3 4 4 5 3 2 3 4 5 5 6 6 6 6 6
2 2 2 2 2 2 2 2 3 4 5 6 7 8 7 9 8 8 8 9 8 7 3 4 4 5 5 4 4 4 5 5 5 5 4 5 5 5 6 6 6 6 6
1 3 2 2 2 2 2 2 2 3 4 3 6 7 7 8 8 8 8 8 2 3 2 3 4 5 5 5 7 7 7 7 7 7 7 7 7 7 7 7 7 7 8
1 2 1 1 1 2 2 2 2 2 3 3 2 6 6 8 8 7 6 2 3 4 4 4 4 4 4 4 5 7 7 7 8 8 8 8 8 8 8 8 8 11 10
1 2 3 2 2 2 2 2 2 2 3 3 3 3 3 5 3 2 2 2 3 3 4 3 4 4 4 4 5 6 7 7 7 7 7 7 8 8 7 7 7 8 8
1 1 5 1 2 2 2 2 2 2 3 3 2 6 11 2 3 3 3 3 3 4 4 3 4 5 4 5 5 6 7 6 6 7 6 6 6 7 7 7 7 6 6
4 3 3 2 2 2 2 2 2 2 2 3 3 5 9 3 4 4 3 3 3 3 3 4 5 5 5 6 7 7 7 7 7 7 6 6 5 6 6 6 6 6 6
4 3 3 3 2 4 2 2 2 2 3 4 5 5 6 5 5 5 4 3 3 3 3 3 4 4 4 5 6 6 7 7 7 7 7 6 7 7 7 8 7 7 7
3 2 2 2 2 2 2 3 5 7 6 6 5 5 6 6 5 5 4 4 4 4 4 4 4 6 6 5 6 8 9 9 8 9 8 7 7 8 7 7 7 7 8
3 3 3 3 3 4 5 6 6 6 6 6 6 6 5 5 5 5 4 4 4 4 4 4 5 6 6 7 8 9 14 14 10 11 8 8 8 8 7 7 7 7 7
4 4 4 4 5 6 6 6 6 6 6 6 5 5 5 4 4 4 4 3 3 4 4 4 5 6 6 7 9 13 14 14 11 14 9 7 8 8 8 8 8 9 8